| time (UTC) | temp F | wind direction | speed MPH | gust MPH | rain 1hr in | rain 24hr in | rain mn in | humidity % | barometer mb |
| 20260906105041 | 58 | 0.0 | 0.0 | 0.02 | 0.25 | 0.25 | 99 | 1014.3 | |
| 20260906104521 | 58 | 0.0 | 0.0 | 0.02 | 0.25 | 0.25 | 99 | 1014.2 | |
| 20260906104021 | 58 | 0.0 | 0.0 | 0.02 | 0.25 | 0.25 | 99 | 1014.2 | |
| 20260906103523 | 58 | 0.0 | 0.0 | 0.03 | 0.25 | 0.25 | 99 | 1014.1 | |
| 20260906103023 | 58 | 0.0 | 0.0 | 0.03 | 0.25 | 0.25 | 99 | 1014.2 | |
| 20260906102643 | 58 | 0.0 | 0.0 | 0.04 | 0.25 | 0.25 | 99 | 1014.0 | |
| 20260906102022 | 58 | 0.0 | 0.0 | 0.04 | 0.25 | 0.25 | 99 | 1014.0 | |
| 20260906101522 | 58 | 0.0 | 0.0 | 0.04 | 0.24 | 0.24 | 99 | 1014.0 | |
| 20260906101022 | 58 | 0.0 | 0.0 | 0.04 | 0.24 | 0.24 | 99 | 1014.0 | |
| 20260906100541 | 58 | 0.0 | 0.0 | 0.05 | 0.24 | 0.24 | 99 | 1014.0 | |
| 20260906100021 | 58 | 0.0 | 0.0 | 0.04 | 0.24 | 0.24 | 99 | 1013.9 | |
| 20260906095523 | 58 | 0.0 | 0.0 | 0.03 | 0.23 | 0.23 | 99 | 1013.9 | |
| 20260906095023 | 58 | 0.0 | 0.0 | 0.03 | 0.22 | 0.22 | 99 | 1013.8 | |
| 20260906094547 | 58 | 0.0 | 0.0 | 0.04 | 0.22 | 0.22 | 99 | 1014.0 | |
| 20260906094022 | 58 | 0.0 | 0.0 | 0.04 | 0.22 | 0.22 | 99 | 1013.9 | |
| 20260906093522 | 58 | 140 | 0.0 | 1.0 | 0.06 | 0.22 | 0.22 | 99 | 1013.9 |
| 20260906093021 | 58 | 0.0 | 0.0 | 0.07 | 0.22 | 0.22 | 99 | 1013.8 | |
| 20260906092522 | 59 | 140 | 0.0 | 1.0 | 0.06 | 0.21 | 0.21 | 99 | 1013.7 |
| 20260906092021 | 59 | 0.0 | 0.0 | 0.06 | 0.21 | 0.21 | 99 | 1013.6 | |
| 20260906091521 | 59 | 0.0 | 0.0 | 0.06 | 0.21 | 0.21 | 99 | 1013.6 | |
| 20260906091021 | 59 | 0.0 | 0.0 | 0.05 | 0.20 | 0.20 | 99 | 1013.5 | |
| 20260906090521 | 59 | 142 | 0.0 | 1.0 | 0.06 | 0.20 | 0.20 | 99 | 1013.5 |
| 20260906090022 | 59 | 140 | 0.0 | 1.0 | 0.06 | 0.20 | 0.20 | 99 | 1013.4 |
| 20260906085522 | 59 | 0.0 | 0.0 | 0.08 | 0.20 | 0.20 | 99 | 1013.4 | |
| 20260906085022 | 59 | 0.0 | 0.0 | 0.09 | 0.19 | 0.19 | 99 | 1013.5 | |
| 20260906084522 | 59 | 0.0 | 0.0 | 0.10 | 0.19 | 0.19 | 99 | 1013.6 | |
| 20260906084022 | 59 | 0.0 | 0.0 | 0.12 | 0.19 | 0.19 | 99 | 1013.7 | |
| 20260906083521 | 59 | 0.0 | 0.0 | 0.10 | 0.16 | 0.16 | 99 | 1013.6 | |
| 20260906083021 | 59 | 140 | 0.0 | 1.0 | 0.11 | 0.15 | 0.15 | 99 | 1013.5 |
| 20260906082521 | 59 | 0.0 | 0.0 | 0.12 | 0.15 | 0.15 | 99 | 1013.2 | |
| 20260906082021 | 59 | 0.0 | 0.0 | 0.12 | 0.15 | 0.15 | 99 | 1013.2 | |
| 20260906081522 | 59 | 0.0 | 0.0 | 0.13 | 0.15 | 0.15 | 98 | 1013.1 | |
| 20260906081022 | 59 | 0.0 | 0.0 | 0.13 | 0.15 | 0.15 | 98 | 1013.1 | |
| 20260906080522 | 58 | 0.0 | 0.0 | 0.13 | 0.14 | 0.14 | 97 | 1013.0 | |
| 20260906080021 | 58 | 0.0 | 0.0 | 0.13 | 0.13 | 0.13 | 97 | 1013.0 | |
| 20260906075521 | 59 | 0.0 | 0.0 | 0.11 | 0.12 | 0.12 | 97 | 1013.1 | |
| 20260906075021 | 59 | 0.0 | 0.0 | 0.09 | 0.10 | 0.10 | 96 | 1013.0 | |
| 20260906074523 | 59 | 0.0 | 0.0 | 0.08 | 0.09 | 0.09 | 95 | 1013.0 | |
| 20260906074022 | 59 | 140 | 0.0 | 1.0 | 0.06 | 0.07 | 0.07 | 94 | 1013.1 |
| 20260906073523 | 60 | 139 | 0.0 | 3.0 | 0.05 | 0.06 | 0.06 | 92 | 1013.0 |
| 20260906073022 | 60 | 136 | 1.0 | 3.0 | 0.04 | 0.04 | 0.04 | 91 | 1013.1 |
| 20260906072522 | 61 | 101 | 2.0 | 6.0 | 0.03 | 0.04 | 0.04 | 94 | 1013.1 |
| 20260906072022 | 61 | 103 | 1.0 | 6.0 | 0.02 | 0.03 | 0.03 | 97 | 1013.0 |
| 20260906071522 | 61 | 0.0 | 1.0 | 0.02 | 0.02 | 0.02 | 97 | 1012.8 | |
| 20260906071041 | 61 | 111 | 0.0 | 1.0 | 0.01 | 0.02 | 0.02 | 97 | 1012.9 |
| 20260906070521 | 61 | 111 | 0.0 | 1.0 | 0.01 | 0.01 | 0.01 | 97 | 1012.7 |
| 20260906070021 | 61 | 0.0 | 0.0 | 0.01 | 0.01 | 0.01 | 97 | 1012.8 | |
| 20260906065521 | 61 | 0.0 | 0.0 | 0.01 | 0.01 | 0.01 | 97 | 1012.8 | |
| 20260906065021 | 61 | 0.0 | 0.0 | 0.01 | 0.01 | 0.01 | 97 | 1012.7 | |
| 20260906064522 | 61 | 0.0 | 0.0 | 0.00 | 0.00 | 0.00 | 97 | 1012.7 | |
| 20260906064022 | 61 | 0.0 | 0.0 | 0.00 | 0.00 | 0.00 | 97 | 1012.9 | |
| 20260906063522 | 61 | 0.0 | 0.0 | 0.00 | 0.00 | 0.00 | 97 | 1012.8 | |
| 20260906063021 | 61 | 0.0 | 0.0 | 0.00 | 0.00 | 0.00 | 98 | 1012.9 | |
| 20260906062522 | 61 | 0.0 | 0.0 | 0.00 | 0.00 | 0.00 | 98 | 1012.8 | |
| 20260906062102 | 61 | 0.0 | 0.0 | 0.00 | 0.00 | 0.00 | 98 | 1012.8 | |
| 20260906061542 | 61 | 0.0 | 0.0 | 0.00 | 0.00 | 0.00 | 98 | 1012.7 | |
| 20260906061042 | 61 | 0.0 | 0.0 | 0.00 | 0.00 | 0.00 | 98 | 1012.7 | |
| 20260906060521 | 61 | 0.0 | 0.0 | 0.00 | 0.00 | 0.00 | 97 | 1012.9 | |
| 20260906060021 | 61 | 0.0 | 0.0 | 0.00 | 0.00 | 0.00 | 97 | 1012.8 | |
| 20260906055521 | 61 | 0.0 | 0.0 | 0.00 | 0.00 | 0.00 | 97 | 1012.9 | |
| 20260906055021 | 61 | 0.0 | 0.0 | 0.00 | 0.00 | 0.00 | 97 | 1012.9 | |
| 20260906054520 | 62 | 0.0 | 0.0 | 0.00 | 0.00 | 0.00 | 97 | 1012.8 | |
| 20260906054042 | 62 | 0.0 | 0.0 | 0.00 | 0.00 | 0.00 | 97 | 1012.8 | |
| 20260906053521 | 62 | 0.0 | 0.0 | 0.00 | 0.00 | 0.00 | 97 | 1012.8 | |
| 20260906053021 | 62 | 0.0 | 0.0 | 0.00 | 0.00 | 0.00 | 97 | 1012.7 | |
| 20260906052601 | 62 | 0.0 | 0.0 | 0.00 | 0.00 | 0.00 | 97 | 1012.8 | |
| 20260906052022 | 62 | 0.0 | 0.0 | 0.00 | 0.00 | 0.00 | 97 | 1012.9 | |
| 20260906051522 | 62 | 0.0 | 0.0 | 0.00 | 0.00 | 0.00 | 97 | 1012.9 | |
| 20260906051022 | 62 | 0.0 | 0.0 | 0.00 | 0.00 | 0.00 | 97 | 1013.0 | |
| 20260906050522 | 62 | 0.0 | 0.0 | 0.00 | 0.00 | 0.00 | 96 | 1013.1 | |
| 20260906050021 | 62 | 0.0 | 0.0 | 0.00 | 0.00 | 0.00 | 96 | 1013.1 | |
| 20260906045526 | 61 | 0.0 | 0.0 | 0.00 | 0.00 | 0.00 | 96 | 1013.1 | |
| 20260906045021 | 61 | 0.0 | 0.0 | 0.00 | 0.00 | 0.00 | 96 | 1013.1 | |
| 20260906044520 | 61 | 0.0 | 0.0 | 0.00 | 0.00 | 0.00 | 96 | 1013.2 | |
| 20260906044020 | 62 | 0.0 | 0.0 | 0.00 | 0.00 | 0.00 | 96 | 1013.1 | |
| 20260906043524 | 62 | 0.0 | 0.0 | 0.00 | 0.00 | 0.00 | 95 | 1013.0 | |
| 20260906043022 | 62 | 0.0 | 0.0 | 0.00 | 0.00 | 0.00 | 95 | 1013.0 | |
| 20260906042522 | 62 | 0.0 | 0.0 | 0.00 | 0.00 | 0.00 | 95 | 1012.9 | |
| 20260906042021 | 62 | 0.0 | 0.0 | 0.00 | 0.00 | 0.00 | 95 | 1012.9 | |
| 20260906041521 | 62 | 0.0 | 0.0 | 0.00 | 0.00 | 0.00 | 95 | 1013.0 | |
| 20260906041023 | 62 | 0.0 | 0.0 | 0.00 | 0.00 | 0.00 | 95 | 1012.9 | |
| 20260906040543 | 62 | 0.0 | 0.0 | 0.00 | 0.00 | 0.00 | 95 | 1012.9 | |
| 20260906040023 | 62 | 0.0 | 0.0 | 0.00 | 0.00 | 0.00 | 96 | 1012.9 | |
| 20260906035522 | 62 | 0.0 | 0.0 | 0.00 | 0.00 | 0.00 | 96 | 1012.8 | |
| 20260906035022 | 62 | 0.0 | 0.0 | 0.00 | 0.00 | 0.00 | 95 | 1012.9 | |
| 20260906034522 | 62 | 0.0 | 0.0 | 0.00 | 0.00 | 0.00 | 95 | 1012.7 | |
| 20260906034042 | 62 | 0.0 | 0.0 | 0.00 | 0.00 | 0.00 | 95 | 1012.9 | |
| 20260906033521 | 62 | 0.0 | 0.0 | 0.00 | 0.00 | 0.00 | 95 | 1012.8 | |
| 20260906033023 | 62 | 0.0 | 0.0 | 0.00 | 0.00 | 0.00 | 94 | 1012.6 | |
| 20260906032523 | 62 | 0.0 | 0.0 | 0.00 | 0.00 | 0.00 | 94 | 1012.8 | |
| 20260906032023 | 62 | 0.0 | 0.0 | 0.00 | 0.00 | 0.00 | 94 | 1012.7 | |
| 20260906031543 | 62 | 0.0 | 0.0 | 0.00 | 0.00 | 0.00 | 93 | 1012.5 | |
| 20260906031022 | 62 | 0.0 | 0.0 | 0.00 | 0.00 | 0.00 | 93 | 1012.6 | |
| 20260906030522 | 62 | 0.0 | 0.0 | 0.00 | 0.00 | 0.00 | 93 | 1012.7 | |
| 20260906030024 | 62 | 0.0 | 0.0 | 0.00 | 0.00 | 0.00 | 92 | 1012.5 | |
| 20260906025521 | 62 | 111 | 0.0 | 1.0 | 0.00 | 0.00 | 0.00 | 91 | 1012.6 |
| 20260906025021 | 62 | 0.0 | 1.0 | 0.00 | 0.00 | 0.00 | 91 | 1012.6 | |
| 20260906024523 | 63 | 111 | 0.0 | 1.0 | 0.00 | 0.00 | 0.00 | 90 | 1012.5 |
| 20260906024023 | 63 | 111 | 0.0 | 1.0 | 0.00 | 0.00 | 0.00 | 90 | 1012.6 |
| 20260906023543 | 63 | 111 | 0.0 | 1.0 | 0.00 | 0.00 | 0.00 | 90 | 1012.6 |
| 20260906023042 | 63 | 111 | 0.0 | 1.0 | 0.00 | 0.00 | 0.00 | 89 | 1012.6 |
| 20260906022522 | 63 | 111 | 0.0 | 1.0 | 0.00 | 0.00 | 0.00 | 88 | 1012.5 |
| 20260906022022 | 63 | 111 | 0.0 | 1.0 | 0.00 | 0.00 | 0.00 | 87 | 1012.5 |
| 20260906021541 | 63 | 0.0 | 0.0 | 0.00 | 0.00 | 0.00 | 86 | 1012.6 | |
| 20260906021021 | 63 | 0.0 | 0.0 | 0.00 | 0.00 | 0.00 | 86 | 1012.8 | |
| 20260906020543 | 63 | 0.0 | 0.0 | 0.00 | 0.00 | 0.00 | 86 | 1012.8 | |
| 20260906020023 | 63 | 0.0 | 0.0 | 0.00 | 0.00 | 0.00 | 86 | 1012.8 | |
| 20260906015522 | 63 | 0.0 | 0.0 | 0.00 | 0.00 | 0.00 | 86 | 1012.8 | |
| 20260906015023 | 63 | 0.0 | 0.0 | 0.00 | 0.00 | 0.00 | 86 | 1012.6 | |
| 20260906014547 | 63 | 0.0 | 0.0 | 0.00 | 0.00 | 0.00 | 86 | 1012.7 | |
| 20260906014022 | 63 | 0.0 | 0.0 | 0.00 | 0.00 | 0.00 | 87 | 1012.8 | |
| 20260906013542 | 63 | 110 | 0.0 | 1.0 | 0.00 | 0.00 | 0.00 | 86 | 1012.8 |
| 20260906013022 | 63 | 0.0 | 0.0 | 0.00 | 0.00 | 0.00 | 85 | 1012.7 | |
| 20260906012521 | 63 | 0.0 | 0.0 | 0.00 | 0.00 | 0.00 | 85 | 1012.8 | |
| 20260906012023 | 63 | 0.0 | 0.0 | 0.00 | 0.00 | 0.00 | 84 | 1012.7 | |
| 20260906011521 | 63 | 0.0 | 0.0 | 0.00 | 0.00 | 0.00 | 83 | 1012.6 | |
| 20260906011023 | 63 | 0.0 | 0.0 | 0.00 | 0.00 | 0.00 | 84 | 1012.7 | |
| 20260906010522 | 63 | 0.0 | 0.0 | 0.00 | 0.00 | 0.00 | 83 | 1012.6 | |
| 20260906010022 | 63 | 0.0 | 0.0 | 0.00 | 0.00 | 0.00 | 83 | 1012.6 | |
| 20260906005522 | 64 | 0.0 | 0.0 | 0.00 | 0.00 | 0.00 | 83 | 1012.6 | |
| 20260906005042 | 64 | 0.0 | 0.0 | 0.00 | 0.00 | 0.00 | 83 | 1012.6 | |
| 20260906004522 | 64 | 0.0 | 0.0 | 0.00 | 0.00 | 0.00 | 83 | 1012.6 | |
| 20260906004021 | 64 | 0.0 | 0.0 | 0.00 | 0.00 | 0.00 | 82 | 1012.4 | |
| 20260906003521 | 64 | 0.0 | 0.0 | 0.00 | 0.00 | 0.00 | 82 | 1012.3 | |
| 20260906003023 | 64 | 0.0 | 0.0 | 0.00 | 0.00 | 0.00 | 82 | 1012.3 | |
| 20260906002523 | 64 | 0.0 | 0.0 | 0.00 | 0.00 | 0.00 | 82 | 1012.4 | |
| 20260906002023 | 64 | 0.0 | 0.0 | 0.00 | 0.00 | 0.00 | 82 | 1012.3 | |
| 20260906001522 | 64 | 0.0 | 0.0 | 0.00 | 0.00 | 0.00 | 82 | 1012.2 | |
| 20260906001022 | 64 | 0.0 | 0.0 | 0.00 | 0.00 | 0.00 | 82 | 1012.2 | |
| 20260906000521 | 64 | 0.0 | 0.0 | 0.00 | 0.00 | 0.00 | 81 | 1012.2 | |
| 20260906000021 | 64 | 0.0 | 0.0 | 0.00 | 0.00 | 0.00 | 81 | 1012.1 | |
| 20260905235521 | 64 | 0.0 | 0.0 | 0.00 | 0.00 | 0.00 | 80 | 1012.2 | |
| 20260905235021 | 64 | 0.0 | 0.0 | 0.00 | 0.00 | 0.00 | 80 | 1012.2 | |
| 20260905234523 | 64 | 0.0 | 0.0 | 0.00 | 0.00 | 0.00 | 80 | 1012.2 | |
| 20260905234022 | 64 | 111 | 0.0 | 2.0 | 0.00 | 0.00 | 0.00 | 79 | 1012.2 |
| 20260905233523 | 64 | 110 | 0.0 | 2.0 | 0.00 | 0.00 | 0.00 | 79 | 1012.0 |
| 20260905233022 | 64 | 111 | 1.0 | 2.0 | 0.00 | 0.00 | 0.00 | 79 | 1012.0 |
| 20260905232522 | 64 | 111 | 1.0 | 2.0 | 0.00 | 0.00 | 0.00 | 79 | 1011.9 |
| 20260905232022 | 64 | 111 | 0.0 | 1.0 | 0.00 | 0.00 | 0.00 | 79 | 1011.9 |
| 20260905231521 | 65 | 118 | 1.0 | 3.0 | 0.00 | 0.00 | 0.00 | 79 | 1011.8 |
| 20260905231021 | 65 | 124 | 1.0 | 3.0 | 0.00 | 0.00 | 0.00 | 79 | 1011.8 |
| 20260905230521 | 65 | 120 | 1.0 | 3.0 | 0.00 | 0.00 | 0.00 | 79 | 1011.6 |
| 20260905230021 | 65 | 98 | 1.0 | 4.0 | 0.00 | 0.00 | 0.00 | 79 | 1011.6 |
| 20260905225523 | 65 | 133 | 2.0 | 4.0 | 0.00 | 0.00 | 0.00 | 79 | 1011.7 |
| 20260905225022 | 65 | 128 | 3.0 | 7.0 | 0.00 | 0.00 | 0.00 | 78 | 1011.6 |
| 20260905224522 | 65 | 136 | 3.0 | 8.0 | 0.00 | 0.00 | 0.00 | 78 | 1011.6 |
| 20260905224042 | 66 | 141 | 3.0 | 7.0 | 0.00 | 0.00 | 0.00 | 78 | 1011.6 |
| 20260905223521 | 66 | 125 | 3.0 | 6.0 | 0.00 | 0.00 | 0.00 | 77 | 1011.6 |
| 20260905223021 | 66 | 91 | 2.0 | 3.0 | 0.00 | 0.00 | 0.00 | 77 | 1011.6 |
| 20260905222521 | 66 | 61 | 0.0 | 1.0 | 0.00 | 0.00 | 0.00 | 76 | 1011.5 |
| 20260905222021 | 66 | 63 | 1.0 | 3.0 | 0.00 | 0.00 | 0.00 | 75 | 1011.5 |
| 20260905221522 | 66 | 74 | 1.0 | 3.0 | 0.00 | 0.00 | 0.00 | 76 | 1011.5 |
| 20260905221022 | 66 | 98 | 1.0 | 3.0 | 0.00 | 0.00 | 0.00 | 75 | 1011.5 |
| 20260905220522 | 66 | 87 | 1.0 | 3.0 | 0.00 | 0.00 | 0.00 | 75 | 1011.4 |
| 20260905220022 | 66 | 62 | 1.0 | 4.0 | 0.00 | 0.00 | 0.00 | 74 | 1011.3 |
| 20260905215522 | 67 | 98 | 2.0 | 4.0 | 0.00 | 0.00 | 0.00 | 74 | 1011.3 |
| 20260905215042 | 67 | 106 | 1.0 | 3.0 | 0.00 | 0.00 | 0.00 | 76 | 1011.3 |
| 20260905214521 | 67 | 67 | 1.0 | 6.0 | 0.00 | 0.00 | 0.00 | 77 | 1011.3 |
| 20260905214021 | 67 | 44 | 0.0 | 3.0 | 0.00 | 0.00 | 0.00 | 78 | 1011.2 |
| 20260905213523 | 67 | 61 | 1.0 | 4.0 | 0.00 | 0.00 | 0.00 | 77 | 1011.2 |
| 20260905213023 | 67 | 86 | 2.0 | 8.0 | 0.00 | 0.00 | 0.00 | 77 | 1011.1 |
| 20260905212522 | 67 | 86 | 1.0 | 3.0 | 0.00 | 0.00 | 0.00 | 77 | 1011.0 |
| 20260905212022 | 67 | 77 | 2.0 | 7.0 | 0.00 | 0.00 | 0.00 | 78 | 1011.0 |
| 20260905211522 | 67 | 105 | 3.0 | 7.0 | 0.00 | 0.00 | 0.00 | 79 | 1011.0 |
| 20260905211022 | 67 | 100 | 3.0 | 7.0 | 0.00 | 0.00 | 0.00 | 79 | 1011.0 |
| 20260905210521 | 67 | 93 | 4.0 | 8.0 | 0.00 | 0.00 | 0.00 | 78 | 1011.0 |
| 20260905210021 | 68 | 99 | 5.0 | 11.0 | 0.00 | 0.00 | 0.00 | 76 | 1011.0 |
| 20260905205523 | 68 | 102 | 3.0 | 8.0 | 0.00 | 0.00 | 0.00 | 75 | 1010.8 |
| 20260905205023 | 68 | 92 | 4.0 | 9.0 | 0.00 | 0.00 | 0.00 | 75 | 1010.9 |
| 20260905204523 | 69 | 90 | 3.0 | 10.0 | 0.00 | 0.00 | 0.00 | 75 | 1010.9 |
| 20260905204027 | 69 | 81 | 2.0 | 7.0 | 0.00 | 0.00 | 0.00 | 77 | 1010.7 |
| 20260905203522 | 69 | 101 | 4.0 | 8.0 | 0.00 | 0.00 | 0.00 | 76 | 1010.7 |
| 20260905203022 | 69 | 117 | 4.0 | 10.0 | 0.00 | 0.00 | 0.00 | 75 | 1010.6 |
| 20260905202521 | 69 | 112 | 3.0 | 9.0 | 0.00 | 0.00 | 0.00 | 75 | 1010.7 |
| 20260905202041 | 70 | 126 | 5.0 | 9.0 | 0.00 | 0.00 | 0.00 | 74 | 1010.7 |
| 20260905201521 | 70 | 84 | 5.0 | 10.0 | 0.00 | 0.00 | 0.00 | 72 | 1010.5 |
| 20260905201021 | 70 | 73 | 2.0 | 8.0 | 0.00 | 0.00 | 0.00 | 72 | 1010.5 |
| 20260905200523 | 70 | 73 | 3.0 | 8.0 | 0.00 | 0.00 | 0.00 | 70 | 1010.3 |
| 20260905200022 | 71 | 79 | 2.0 | 10.0 | 0.00 | 0.00 | 0.00 | 69 | 1010.1 |
| 20260905195543 | 71 | 85 | 5.0 | 11.0 | 0.00 | 0.00 | 0.00 | 68 | 1010.2 |
| 20260905195042 | 71 | 73 | 3.0 | 11.0 | 0.00 | 0.00 | 0.00 | 68 | 1010.1 |
| 20260905194522 | 72 | 97 | 3.0 | 6.0 | 0.00 | 0.00 | 0.00 | 70 | 1010.0 |
| 20260905194021 | 71 | 109 | 3.0 | 9.0 | 0.00 | 0.00 | 0.00 | 69 | 1010.2 |
| 20260905193541 | 71 | 104 | 2.0 | 13.0 | 0.00 | 0.00 | 0.00 | 70 | 1010.2 |
| 20260905193021 | 72 | 71 | 4.0 | 13.0 | 0.00 | 0.00 | 0.00 | 69 | 1010.3 |
| 20260905192523 | 72 | 107 | 4.0 | 9.0 | 0.00 | 0.00 | 0.00 | 69 | 1010.3 |
| 20260905192023 | 72 | 106 | 5.0 | 9.0 | 0.00 | 0.00 | 0.00 | 70 | 1010.3 |
| 20260905191520 | 72 | 106 | 4.0 | 10.0 | 0.00 | 0.00 | 0.00 | 70 | 1010.3 |
| 20260905191043 | 72 | 116 | 5.0 | 10.0 | 0.00 | 0.00 | 0.00 | 70 | 1010.2 |
| 20260905190522 | 71 | 86 | 4.0 | 8.0 | 0.00 | 0.00 | 0.00 | 72 | 1010.2 |
| 20260905190022 | 71 | 118 | 4.0 | 9.0 | 0.00 | 0.00 | 0.00 | 72 | 1010.3 |
| 20260905185541 | 71 | 103 | 4.0 | 9.0 | 0.00 | 0.00 | 0.00 | 71 | 1010.4 |
| 20260905185021 | 71 | 81 | 4.0 | 9.0 | 0.00 | 0.00 | 0.00 | 71 | 1010.3 |
| 20260905184521 | 71 | 104 | 5.0 | 10.0 | 0.00 | 0.00 | 0.00 | 72 | 1010.4 |
| 20260905184022 | 71 | 107 | 4.0 | 8.0 | 0.00 | 0.00 | 0.00 | 72 | 1010.4 |
| 20260905183523 | 71 | 99 | 5.0 | 10.0 | 0.00 | 0.00 | 0.00 | 72 | 1010.4 |
| 20260905183022 | 71 | 115 | 5.0 | 9.0 | 0.00 | 0.00 | 0.00 | 75 | 1010.4 |
| 20260905182042 | 69 | 78 | 1.0 | 3.0 | 0.00 | 0.00 | 0.00 | 77 | 1010.5 |
| 20260905181522 | 69 | 81 | 2.0 | 6.0 | 0.00 | 0.00 | 0.00 | 76 | 1010.5 |
| 20260905181021 | 69 | 91 | 3.0 | 10.0 | 0.00 | 0.00 | 0.00 | 77 | 1010.5 |
| 20260905180606 | 69 | 86 | 3.0 | 7.0 | 0.00 | 0.00 | 0.00 | 77 | 1010.5 |
| 20260905180023 | 69 | 93 | 4.0 | 11.0 | 0.00 | 0.00 | 0.00 | 77 | 1010.5 |
| 20260905175523 | 69 | 89 | 5.0 | 14.0 | 0.00 | 0.00 | 0.00 | 76 | 1010.4 |
| 20260905175022 | 69 | 93 | 3.0 | 7.0 | 0.00 | 0.00 | 0.00 | 76 | 1010.3 |
| 20260905174522 | 69 | 103 | 2.0 | 15.0 | 0.00 | 0.00 | 0.00 | 75 | 1010.3 |
| 20260905174022 | 70 | 46 | 1.0 | 3.0 | 0.00 | 0.00 | 0.00 | 74 | 1010.1 |
| 20260905173522 | 70 | 56 | 2.0 | 10.0 | 0.00 | 0.00 | 0.00 | 73 | 1010.1 |
| 20260905173021 | 71 | 95 | 3.0 | 7.0 | 0.00 | 0.00 | 0.00 | 72 | 1010.0 |
| 20260905172521 | 71 | 62 | 1.0 | 3.0 | 0.00 | 0.00 | 0.00 | 72 | 1010.0 |
| 20260905172021 | 71 | 128 | 2.0 | 4.0 | 0.00 | 0.00 | 0.00 | 72 | 1009.9 |
| 20260905171521 | 71 | 108 | 1.0 | 4.0 | 0.00 | 0.00 | 0.00 | 73 | 1009.8 |
| 20260905171023 | 71 | 57 | 1.0 | 4.0 | 0.00 | 0.00 | 0.00 | 73 | 1009.8 |
| 20260905170522 | 71 | 8 | 1.0 | 4.0 | 0.00 | 0.00 | 0.00 | 73 | 1009.8 |
| 20260905170022 | 70 | 85 | 1.0 | 4.0 | 0.00 | 0.00 | 0.00 | 73 | 1009.9 |
| 20260905165522 | 70 | 323 | 1.0 | 2.0 | 0.00 | 0.00 | 0.00 | 73 | 1009.8 |
| 20260905165022 | 70 | 4 | 1.0 | 3.0 | 0.00 | 0.00 | 0.00 | 73 | 1009.9 |
| 20260905164522 | 70 | 88 | 2.0 | 4.0 | 0.00 | 0.00 | 0.00 | 74 | 1009.8 |
| 20260905164021 | 70 | 91 | 1.0 | 6.0 | 0.00 | 0.00 | 0.00 | 73 | 1009.8 |
| 20260905163521 | 70 | 317 | 1.0 | 3.0 | 0.00 | 0.00 | 0.00 | 72 | 1009.8 |
| 20260905163043 | 70 | 322 | 1.0 | 3.0 | 0.00 | 0.00 | 0.00 | 72 | 1009.8 |
| 20260905162523 | 69 | 305 | 0.0 | 2.0 | 0.00 | 0.00 | 0.00 | 72 | 1009.9 |
| 20260905162023 | 69 | 352 | 1.0 | 7.0 | 0.00 | 0.00 | 0.00 | 72 | 1009.9 |
| 20260905161602 | 69 | 86 | 2.0 | 7.0 | 0.00 | 0.00 | 0.00 | 73 | 1009.8 |
| 20260905161022 | 69 | 355 | 1.0 | 2.0 | 0.00 | 0.00 | 0.00 | 72 | 1010.0 |
| 20260905160522 | 70 | 22 | 1.0 | 2.0 | 0.00 | 0.00 | 0.00 | 73 | 1010.0 |
| 20260905160021 | 70 | 66 | 1.0 | 6.0 | 0.00 | 0.00 | 0.00 | 72 | 1009.8 |
| 20260905155541 | 70 | 78 | 2.0 | 8.0 | 0.00 | 0.00 | 0.00 | 73 | 1009.8 |
| 20260905155021 | 69 | 29 | 1.0 | 3.0 | 0.00 | 0.00 | 0.00 | 75 | 1009.9 |
| 20260905154522 | 69 | 35 | 0.0 | 4.0 | 0.00 | 0.00 | 0.00 | 75 | 1009.9 |
| 20260905154022 | 69 | 355 | 1.0 | 7.0 | 0.00 | 0.00 | 0.00 | 75 | 1010.0 |
| 20260905153527 | 69 | 75 | 1.0 | 4.0 | 0.00 | 0.00 | 0.00 | 76 | 1010.0 |
| 20260905153022 | 69 | 127 | 1.0 | 4.0 | 0.00 | 0.00 | 0.00 | 77 | 1010.0 |
| 20260905152543 | 69 | 69 | 1.0 | 4.0 | 0.00 | 0.00 | 0.00 | 79 | 1009.9 |
| 20260905152102 | 69 | 51 | 1.0 | 4.0 | 0.00 | 0.00 | 0.00 | 78 | 1009.9 |
| 20260905151521 | 69 | 347 | 1.0 | 6.0 | 0.00 | 0.00 | 0.00 | 77 | 1009.8 |
| 20260905151041 | 69 | 23 | 1.0 | 6.0 | 0.00 | 0.00 | 0.00 | 77 | 1009.8 |
| 20260905150521 | 69 | 338 | 0.0 | 2.0 | 0.00 | 0.00 | 0.00 | 77 | 1009.7 |
| 20260905150043 | 69 | 333 | 1.0 | 2.0 | 0.00 | 0.00 | 0.00 | 78 | 1009.8 |
| 20260905145542 | 69 | 345 | 0.0 | 3.0 | 0.00 | 0.00 | 0.00 | 77 | 1009.8 |
| 20260905144522 | 69 | 29 | 1.0 | 3.0 | 0.00 | 0.00 | 0.00 | 77 | 1009.8 |
| 20260905144022 | 69 | 321 | 1.0 | 2.0 | 0.00 | 0.00 | 0.00 | 77 | 1009.8 |
| 20260905143522 | 69 | 330 | 1.0 | 3.0 | 0.00 | 0.00 | 0.00 | 76 | 1009.8 |
| 20260905143122 | 69 | 347 | 1.0 | 2.0 | 0.00 | 0.00 | 0.00 | 76 | 1009.7 |
| 20260905142522 | 69 | 343 | 1.0 | 2.0 | 0.00 | 0.00 | 0.00 | 78 | 1009.8 |
| 20260905142021 | 69 | 16 | 0.0 | 2.0 | 0.00 | 0.00 | 0.00 | 79 | 1009.7 |
| 20260905141521 | 68 | 43 | 0.0 | 2.0 | 0.00 | 0.00 | 0.00 | 79 | 1009.8 |
| 20260905141021 | 68 | 347 | 0.0 | 2.0 | 0.00 | 0.00 | 0.00 | 80 | 1009.9 |
| 20260905140523 | 68 | 341 | 0.0 | 2.0 | 0.00 | 0.00 | 0.00 | 80 | 1009.9 |
| 20260905140022 | 68 | 344 | 0.0 | 1.0 | 0.00 | 0.00 | 0.00 | 80 | 1009.9 |
| 20260905135522 | 68 | 344 | 0.0 | 2.0 | 0.00 | 0.00 | 0.00 | 80 | 1009.9 |
| 20260905135102 | 68 | 53 | 1.0 | 2.0 | 0.00 | 0.00 | 0.00 | 79 | 1009.9 |
| 20260905133021 | 68 | 71 | 1.0 | 3.0 | 0.00 | 0.00 | 0.00 | 80 | 1009.6 |
| 20260905132521 | 68 | 331 | 1.0 | 2.0 | 0.00 | 0.00 | 0.00 | 80 | 1009.6 |
| 20260905132021 | 68 | 342 | 0.0 | 2.0 | 0.00 | 0.00 | 0.00 | 81 | 1009.5 |
| 20260905131520 | 68 | 342 | 1.0 | 2.0 | 0.00 | 0.00 | 0.00 | 80 | 1009.5 |
| 20260905131022 | 68 | 330 | 1.0 | 2.0 | 0.00 | 0.00 | 0.00 | 79 | 1009.5 |
| 20260905130522 | 68 | 63 | 1.0 | 2.0 | 0.00 | 0.00 | 0.00 | 80 | 1009.4 |
| 20260905130022 | 69 | 13 | 1.0 | 2.0 | 0.00 | 0.00 | 0.00 | 79 | 1009.4 |
| 20260905125521 | 69 | 31 | 1.0 | 7.0 | 0.00 | 0.00 | 0.00 | 79 | 1009.5 |
| 20260905125021 | 68 | 65 | 1.0 | 4.0 | 0.00 | 0.00 | 0.00 | 80 | 1009.4 |
| 20260905124521 | 67 | 351 | 0.0 | 2.0 | 0.00 | 0.00 | 0.00 | 80 | 1009.3 |
| 20260905124021 | 67 | 333 | 1.0 | 2.0 | 0.00 | 0.00 | 0.00 | 82 | 1009.4 |
| 20260905123521 | 67 | 332 | 0.0 | 2.0 | 0.00 | 0.00 | 0.00 | 81 | 1009.2 |
| 20260905123043 | 67 | 6 | 1.0 | 3.0 | 0.00 | 0.00 | 0.00 | 81 | 1009.1 |
| 20260905122542 | 67 | 350 | 0.0 | 1.0 | 0.00 | 0.00 | 0.00 | 83 | 1009.2 |
| 20260905122022 | 66 | 347 | 1.0 | 2.0 | 0.00 | 0.00 | 0.00 | 83 | 1009.1 |
| 20260905121522 | 66 | 346 | 0.0 | 2.0 | 0.00 | 0.00 | 0.00 | 84 | 1009.0 |
| 20260905121022 | 66 | 327 | 0.0 | 2.0 | 0.00 | 0.00 | 0.00 | 85 | 1009.0 |
| 20260905120521 | 65 | 346 | 0.0 | 1.0 | 0.00 | 0.00 | 0.00 | 86 | 1008.9 |
| 20260905120041 | 65 | 0.0 | 0.0 | 0.00 | 0.00 | 0.00 | 87 | 1009.0 | |
| 20260905115521 | 64 | 344 | 0.0 | 2.0 | 0.00 | 0.00 | 0.00 | 88 | 1009.0 |
| 20260905115024 | 64 | 0.0 | 0.0 | 0.00 | 0.00 | 0.00 | 88 | 1008.8 | |
| 20260905114522 | 64 | 61 | 0.0 | 2.0 | 0.00 | 0.00 | 0.00 | 88 | 1008.8 |
| 20260905114022 | 63 | 93 | 0.0 | 1.0 | 0.00 | 0.00 | 0.00 | 88 | 1008.9 |
| 20260905113522 | 63 | 0.0 | 1.0 | 0.00 | 0.00 | 0.00 | 89 | 1008.8 | |
| 20260905113021 | 63 | 0.0 | 0.0 | 0.00 | 0.00 | 0.00 | 89 | 1008.8 | |
| 20260905112521 | 63 | 0.0 | 0.0 | 0.00 | 0.00 | 0.00 | 90 | 1008.7 | |
| 20260905112041 | 62 | 0.0 | 0.0 | 0.00 | 0.00 | 0.00 | 91 | 1008.7 | |
| 20260905111523 | 62 | 0.0 | 0.0 | 0.00 | 0.00 | 0.00 | 92 | 1008.6 | |
| 20260905111021 | 61 | 0.0 | 0.0 | 0.00 | 0.00 | 0.00 | 93 | 1008.6 | |
| 20260905110522 | 61 | 0.0 | 0.0 | 0.00 | 0.00 | 0.00 | 94 | 1008.5 | |
| 20260905110022 | 60 | 0.0 | 0.0 | 0.00 | 0.00 | 0.00 | 96 | 1008.5 | |
| 20260905105527 | 60 | 0.0 | 0.0 | 0.00 | 0.00 | 0.00 | 96 | 1008.4 |